Hourly Data Report for January 24, 2022

RANKIN INLET A
NUNAVUT
Current Station Operator: NAVCAN

62°48'38.000" N
92°06'53.000" W
32.30 m
2303405
71083
YRT

Download Data

Hourly Data (January 2022)
Hourly Data Report for January 24, 2022
TIME
LST
Temp Definition
°C
Dew Point Definition
°C
Rel Hum Definition
%
Precip. Amount Definition
mm

Wind Dir Definition
10's deg

Wind Spd Definition
km/h
Visibility Definition
km
Stn Press Definition
kPa
Hmdx Definition


Wind Chill Definition


Weather Definition


00:00 -32.7 -36.9 67   34 50 0.8 100.16   -53 Ice Crystals,Blowing Snow
01:00 -32.6 -36.9 67   34 48 2.0 100.22   -52 Ice Crystals,Blowing Snow
02:00 -32.5 -36.7 67   34 45 1.6 100.21   -52 Ice Crystals,Blowing Snow
03:00 -32.1 -36.3 67   35 51 1.2 100.20   -52 Ice Crystals,Blowing Snow
04:00 -31.9 -36.1 67   36 50 1.2 100.24   -52 Ice Crystals,Blowing Snow
05:00 -31.7 -35.8 67   35 55 1.0 100.23   -52 Ice Crystals,Blowing Snow
06:00 -31.9 -36.1 67   35 52 1.2 100.32   -52 Ice Crystals,Blowing Snow
07:00 -32.0 -36.2 67   35 53 1.0 100.34   -52 Ice Crystals,Blowing Snow
08:00 -31.7 -35.8 68   35 55 1.0 100.33   -52 Ice Crystals,Blowing Snow
09:00 -31.8 -36.0 68   35 53 0.8 100.37   -52 Ice Crystals,Blowing Snow
10:00 -32.2 -36.4 67   35 49 0.6 100.44   -52 Ice Crystals,Blowing Snow
11:00 -32.0 -36.2 67   35 49 0.8 100.50   -52 Ice Crystals,Blowing Snow
12:00 -31.6 -35.8 67   35 51 1.2 100.54   -51 Ice Crystals,Blowing Snow
13:00 -31.3 -35.5 67   35 46 2.4 100.60   -50 Ice Crystals,Blowing Snow
14:00 -30.9 -35.1 67   34 38 3.2 100.69   -48 Ice Crystals,Blowing Snow
15:00 -30.8 -34.9 68   35 43 2.4 100.78   -49 Ice Crystals,Blowing Snow
16:00 -31.0 -35.2 68   34 42 4.8 100.85   -49 Ice Crystals,Blowing Snow
17:00 -31.2 -35.4 67   34 44 4.8 100.89   -50 Ice Crystals,Blowing Snow
18:00 -31.4 -35.6 67   34 43 4.8 100.92   -50 Ice Crystals,Blowing Snow
19:00 -32.1 -36.3 67   35 47 0.6 100.92   -51 Ice Crystals,Blowing Snow
20:00 -32.5 -36.7 67   34 45 2.4 100.92   -52 Ice Crystals,Blowing Snow
21:00 -32.5 -36.7 67   35 49 1.0 100.88   -52 Ice Crystals,Blowing Snow
22:00 -32.8 -37.0 67   34 45 1.2 100.87   -52 Ice Crystals,Blowing Snow
23:00 -32.8 -37.0 67   33 44 1.0 100.88   -52 Ice Crystals,Blowing Snow

Notes on Data Quality.

Legend

  • E = Estimated
  • M = Missing
  • NA = Not Available*
  • [empty] = Indicates an unobserved value
Date modified: